www.pogodaiklimat.ru

Погода и климат >> Архив погоды >> Китай >> Guai Zi Hu


ПОГОДА в Guai Zi Hu

  • Прогноз погоды в Guai Zi Hu
  • Монитор погоды в Guai Zi Hu
  • Климат города

АРХИВ ПОГОДЫ в Guai Zi Hu

Время (UTC), дата Ветер
(напр.,м/с)
 
Видим.   Явления Облачность Т
(С)
Тd
(С)
f
(%)
Тe
(С)
Тes
(С)
Комфортность P
(гПа)
Po
(гПа)
Тmin
(С)
Tmax
(С)
R
(мм)
R24
(мм)
S
(см)
06 19.05 В 10 7000 м 9/9
[]
+34.6 -6.2 7 +30 +30 жарко 996.2 997.5 +22.4
09 19.05 ЮВ 7 24 км 9/9
[]
+34.1 -4.8 8 +30 +30 жарко 995.2 995.0
12 19.05 В 5 28 км 9/9
[]
+31.8 -4.9 9 +28 +28 жарко 996.4 996.0
18 19.05 Ю 6 26 км ?/? +24.8 +1.7 22 +24 +24 комфорт 997.9 896.1 +35.2
21 19.05 С 1 23 км ?/? +22.4 +2.5 27 +22 +22 комфорт 998.9 999.0
00 20.05 З 5 14 км 9/9
[]
+22.5 +4.1 30 +23 +23 комфорт 1001.2 1018.5
03 20.05 З 8 14 км 9/9
[]
+25.1 +0.6 20 +24 +24 комфорт 1002.7 1003.0
06 20.05 З 7 14 км 9/9
[]
+29.9 -1.5 13 +27 +27 жарко 1000.9 1001.0 +18.4
09 20.05 З 4 15 км 9/9
[]
+32.1 -2.0 11 +29 +29 жарко 999.1 999.0
12 20.05 З 10 2300 м пыльный позёмок 10/10
[]
+28.2 -2.8 13 +25 +25 комфорт 1001.1 1001.0
18 20.05 В 13
{25}
1400 м пыльная буря на расстоянии {метель} ?/? +17.9 -6.0 19 +16 +16 1009.4 904.5 +32.6
21 20.05 В 9
{25}
6000 м пыльный позёмок ?/? +15.0 -4.3 26 +13 +13 1010.9 1011.0
00 21.05 В 10 8000 м 10/10
[]
+13.6 -2.8 32 +11 +11 1014.4 1031.0
03 21.05 В 8 16 км 9/9
[]
+16.0 -2.0 29 +15 +15 1014.8 1015.0
06 21.05 В 7 15 км 9/9
[]
+19.2 -2.4 23 +19 +19 1013.7 1014.0 +13.6
09 21.05 В 5 17 км 9/9
[]
+19.6 -2.7 22 +19 +20 1013.3 1013.0
12 21.05 ЮВ 3 19 км 10/10
[]
+19.7 -2.0 23 +20 +20 1014.2 1014.0
18 21.05 В 5 24 км ?/? +13.5 +0.5 41 +12 +12 1017.0 1017.0 +20.1
21 21.05 В 5 29 км ?/? +11.1 +0.5 48 +9 +9 1017.5 1018.0
00 22.05 В 5 30 км ясно +13.0 +1.4 45 +11 +13 1018.7 1019.0
03 22.05 С 4 22 км ясно +19.7 +0.2 27 +20 +30 1017.8 1018.0
06 22.05 СВ 2 22 км 3/3
[]
+23.3 -3.9 16 +21 +35 комфорт 1016.7 1017.0 +10.1
09 22.05 СВ 5 28 км 9/9 2000 м
[]
+24.4 -4.8 14 +22 +23 комфорт 1015.3 1015.0
12 22.05 В 4 30 км ?/? +22.8 -5.2 15 +21 +21 комфорт 1015.3 1015.0 6
18 22.05 В 2 27 км ?/? +15.3 -5.1 24 +15 +15 1015.9 908.8 +25.1
21 22.05 В 6 28 км ?/? +11.7 -5.3 30 +9 +9 1016.5 1017.0
00 23.05 В 3 27 км ясно +15.8 -4.2 25 +16 +18 1017.7 1018.0
03 23.05 В 5 21 км 3/3 2000 м
[]
+24.9 -1.8 17 +23 +29 комфорт 1016.9 1017.0
06 23.05 В 5 25 км 1/1 2000 м
[]
+27.3 -11.5 7 +24 +33 комфорт 1015.6 1015.3 +10.4
09 23.05 В 4 25 км ясно +27.6 -13.2 6 +24 +29 комфорт 1014.0 1014.0
12 23.05 В 4 30 км ясно +25.6 -14.6 6 +22 +22 комфорт 1014.1 1014.0
18 23.05 Ю 7 30 км ?/? +18.5 -13.7 10 +18 +18 1014.9 1015.0 +28.2
21 23.05 Ю 6 30 км ?/? +16.7 -12.8 12 +16 +16 1014.5 1015.0
00 24.05 Ю 8 25 км ясно +22.1 -10.9 10 +20 +21 1015.0 909.5
03 24.05 З 3 30 км ясно +27.5 -13.3 6 +24 +36 комфорт 1015.3 874.0
06 24.05 С 3 30 км 3/3
[]
+28.7 -14.6 5 +25 +36 комфорт 1013.8 908.4 +16.0
09 24.05 С 1 30 км 3/3
[]
+29.8 -13.9 5 +25 +32 комфорт 1012.1 1012.0
12 24.05 З 2 30 км ясно +28.7 -14.6 5 +25 +25 комфорт 1011.2 906.6
18 24.05 Ю 5 30 км ?/? +21.0 -14.5 8 +20 +20 1011.8 1012.0 +30.5
21 24.05 Ю 7 30 км ?/? +19.5 -17.2 7 +18 +18 1011.9 1012.0
00 25.05 З 3 30 км ясно +22.7 -11.8 9 +20 +23 1012.7 1013.0
03 25.05 З 6 23 км ясно +29.5 -11.8 6 +25 +31 комфорт 1012.3 1012.0
06 25.05 З 6 28 км 3/3
[]
+32.6 -14.6 4 +28 +33 жарко 1009.9 1010.0 +18.9
09 25.05 З 1 26 км ясно +33.1 -17.8 3 +28 +38 жарко 1007.7 1008.0
12 25.05 З 3 30 км ясно +31.5 -18.8 3 +27 +27 жарко 1006.5 1007.0
18 25.05 Ю 6 30 км ?/? +22.6 -13.3 8 +20 +20 1005.9 1006.0 +33.5
21 25.05 Ю 7 30 км ?/? +20.8 -13.2 9 +19 +19 1005.8 1006.0
00 26.05 С 2 29 км ясно +21.5 -10.2 11 +20 +23 1007.6 1008.0
03 26.05 З 3 24 км ясно +30.4 -11.2 6 +26 +39 жарко 1007.0 1007.0

 

Местоположение метеостанции Guai Zi Hu (Китай): широта 41.37 долгота 102.36 высота над уровнем моря 960 м.

В архиве по умолчанию представлена погода в Guai Zi Hu за последнюю неделю. Архивные данные за месяц целиком и за предыдущие месяцы, начиная с января 2011 года, Вы можете получить, выбрав интересующий диапазон дат из раскрывающегося списка и нажав кнопку "Ввод!".

Внимание! Время в таблицах - всемирное. Для получения местного времени необходимо прибавить поправку, которая в Guai Zi Hu равна 8 ч.

Смотрите также архив погоды в соседних городах и на ближайших метеорологических станциях:

Погода в Ejin Qi (Китай) (126 км)
Погода в Bayan Mod (Китай) (192 км)
Погода в Shine Usa (Монголия) (246 км)
Погода в Dalanzadgad (Монголия) (298 км)
Погода в Minqin (Китай) (311 км)
Погода в Zhangye (Китай) (317 км)
Погода в Hails (Китай) (335 км)
Погода в Jartai (Китай) (337 км)
Погода в Bogd (Монголия) (365 км)
Погода в Jiuquan (Китай) (373 км)

Пояснения к столбцам:

Ветер - указаны скорость ветра в м/с - средняя за 10 мин, порывы в срок и между сроками (в фигурных скобках) и направление, откуда дует ветер: С - северный, СВ - северо-восточный, В - восточный, ЮВ - юго-восточный, Ю - южный, ЮЗ - юго-западный, З - западный, СЗ - северо-западный.
Видимость - горизонтальная дальность видимости в метрах или километрах. При видимости от 1 до 10 км при отсутствии осадков обычно наблюдается дымка, при ухудшении видимости до 1 км и менее - туман. В сухую погоду видимость может ухудшаться дымом, пылью или мглою.
Явления - указаны атмосферные явления, наблюдавшиеся в срок или в последний час перед сроком; фигурными скобками обозначены явления, наблюдавшиеся между сроками (за 1-3 часа до срока); квадратными скобками обозначены град или гололедные отложения с указанием их диаметра в мм.
Облачность - указаны через наклонную черту общая и нижняя облачность в баллах и высота нижней границы облаков в метрах; квадратными скобками обозначены формы облаков: Ci - перистые, Cs - перисто-слоистые, Cc - перисто-кучевые, Ac - высококучевые, As - высокослоистые, Sc - слоисто-кучевые, Ns - слоисто-дождевые, Cu - кучевые, Cb - кучево-дождевые. Подробнее классификацию облаков см. в Атласе облаков (PDF).
T - Температура воздуха - температура, измеренная на высоте 2 м над землей.
Td - Температура точки росы - температура, при понижении до которой содержащийся в воздухе водяной пар достигнет насыщения.
f - Относительная влажность воздуха - влажноcть воздуха, измеренная на высоте 2 м над землей.
Te - Эффективная температура - температура, которую ощущает одетый по сезону человек в тени. Характеристика душности погоды. При расчете учитывается влияние влажности воздуха и скорости ветра на теплоощущения человека.
Tes - Эффективная температура на солнце - температура, которую ощущает человек, с поправкой на солнечный нагрев. Характеристика знойности погоды. Зависит от высоты солнца над горизонтом, облачности и скорости ветра. Ночью, в пасмурную погоду, а также при ветре 12 м/с и более поправка равна нулю.
P - Атмосферное давление - приведенное к уровню моря атмосферное давление.
Po - Атмосферное давление - измеренное на уровне метеостанции атмосферное давление.
Tmin - Минимальная температура - минимум температуры воздуха на высоте 2 м над землей.
Tmax - Максимальная температура - максимум температуры воздуха на высоте 2 м над землей.
R - Количество осадков - Количество выпавших осадков за период времени, мм. При наведении курсора мыши на число - период времени, за который выпало указанное количество осадков.
R24 - Количество осадков - Количество выпавших осадков за 24 часа, мм.
S - Снежный покров - Высота снежного покрова, см. При наведении курсора мыши на число - состояние снежного покрова и степень покрытия местности в баллах.